[[{"header":{"parameterUnit":"m.s-1","parameterCategory":1,"la1":30.2991,"la2":30.254,"lo1":-89.0895,"lo2":-89.0444,"dy":0.0017,"dx":0.0017,"nx":28,"ny":28,"refTime":"2023-10-31T09:00:00:Z","depth":0,"parameterNumber":2,"parameterNumberName":"U-component_of_WINDS"},"data":[0,0,0,0,0,0,0,0,0,0,0,0,0,0,0,0,0,0,0,0,0,0,0,0,0,0,0,0,0,0,0,0,0,0,0,0,0,0,0,0,0,0,0,0,0,0,0,0,0,0,0,0,0,0,0,0,0,0,-3.9208,-3.9208,0,-3.9281,-3.9282,-3.9283,-3.9163,-3.9159,-3.9155,-3.9151,-3.9225,-3.923,-3.9236,0,0,0,0,0,0,0,0,0,0,0,0,0,-3.8961,-3.8966,-3.9208,-3.9208,-3.9209,-3.9281,-3.9282,-3.9283,-3.9164,-3.9159,-3.9154,-3.9149,-3.9223,-3.923,-3.9237,0,0,0,0,0,0,0,0,0,0,0,0,0,-3.9055,-3.8968,-3.9207,-3.9158,-3.9155,-3.9281,-3.9282,-3.9283,-3.9165,-3.9158,-3.9152,-3.9147,-3.9221,-3.9229,-3.9238,-3.9414,0,0,-3.9264,-3.9268,0,0,0,0,0,0,0,0,-3.905,-3.9064,-3.9165,-3.9162,-3.9158,-3.9206,-3.9222,-3.9327,-3.9166,-3.9161,-3.9151,-3.9144,-3.9224,-3.9232,-3.9259,-3.9418,-3.9421,-3.9265,-3.927,-3.9274,-3.9276,0,0,0,0,0,0,0,-3.9043,-3.906,-3.9236,-3.9166,-3.9162,-3.9132,-3.9138,-3.9241,-3.9226,-3.9161,-3.9152,-3.9163,-3.9221,-3.9251,-3.926,-3.9422,-3.9265,-3.9272,-3.9278,-3.9281,-3.9727,-3.9733,0,0,0,0,0,0,-3.9043,-3.9055,-3.9234,-3.9239,-3.9088,-3.9141,-3.9149,-3.9197,-3.9224,-3.9223,-3.9168,-3.9157,-3.9239,-3.925,-3.9262,-3.9469,-3.9274,-3.9282,-3.9287,-3.972,-3.9728,-3.9736,0,0,0,0,0,0,-3.9038,-3.906,-3.9231,-3.9145,-3.9164,-3.9152,-3.9208,-3.9202,-3.9232,-3.923,-3.9226,-3.9202,-3.9235,-3.925,-3.9377,-3.947,-3.9286,-3.9294,-3.9713,-3.9723,-3.9732,-3.9886,0,0,0,0,0,0,-3.9032,-3.9059,-3.9127,-3.9147,-3.9169,-3.9347,-3.9213,-3.9208,-3.9247,-3.9234,-3.9261,-3.9259,-3.9231,-3.9365,-3.9386,-3.9479,-3.9301,-3.9704,-3.9717,-3.9729,-3.9873,-3.99,-3.9924,0,0,0,0,0,-3.9023,-3.9168,-3.9131,-3.9153,-3.9254,-3.9352,-3.9365,-3.933,-3.9255,-3.9323,-3.9321,-3.9258,-3.9456,-3.9379,-3.9401,-3.9498,-3.9698,-3.9713,-3.9728,-3.9861,-3.9895,-3.9923,0,0,0,0,0,0,-3.9159,-3.917,-3.9129,-3.9285,-3.9318,-3.9332,-3.9416,-3.9366,-3.9422,-3.9407,-3.936,-3.9367,-3.9504,-3.9513,-3.9427,-3.9669,-3.9565,-3.9585,-3.9658,-3.969,-3.9715,-3.971,-3.9308,0,0,0,0,0,-3.9207,-3.9286,-3.9291,-3.9428,-3.9446,-3.9429,-3.947,-3.944,-3.9473,-3.9486,-3.9494,-3.9528,-3.9597,-3.9644,-3.9708,-3.9873,-3.9876,-3.9951,-3.9976,-3.9997,-4.0015,-4.0101,-4.0134,-3.9785,-3.9784,-3.9784,0,0,-3.9307,-3.9322,-3.9375,-3.9455,-3.9478,-3.956,-3.9442,-3.9534,-3.9594,-3.95,-3.9621,-3.9627,-3.9662,-3.9808,-3.9873,-3.9821,-4.0112,-4.0016,-4.0033,-4.004,-4.012,-4.0153,-4.0183,-3.9795,-3.9793,-3.9791,0,0,-3.9531,-3.9551,-3.9666,-3.9691,-3.9727,-3.9714,-3.9741,-3.9762,-3.9763,-3.9883,-3.9814,-3.9884,-4.0006,-4.0032,-4.0062,-4.0294,-4.0238,-4.0316,-4.0449,-4.0534,-4.0561,-4.0586,-4.0667,-4.0697,-4.0334,-4.0335,-4.0335,0,-3.965,-3.9772,-3.9732,-3.9829,-3.9865,-3.9784,-3.9899,-3.9925,-3.998,-4.0007,-3.9947,-4.0096,-4.0114,-4.0265,-4.0321,-4.0348,-4.0377,-4.0313,-4.0561,-4.0585,-4.0607,-4.0684,-4.0715,-4.0344,-4.0343,-4.0342,-4.0341,0,-3.9917,-4.0002,-4.0091,-4.0146,-4.0192,-4.0298,-4.0272,-4.0324,-4.0289,-4.0282,-4.0404,-4.0422,-4.0488,-4.0521,-4.0489,-4.0667,-4.0633,-4.0569,-4.0462,-4.065,-4.0722,-4.0751,-4.0357,-4.0354,-4.0351,-4.0349,0,0,-4.0229,-4.0259,-4.0293,-4.0315,-4.0348,-4.0413,-4.0514,-4.0578,-4.0622,-4.0663,-4.0745,-4.0849,-4.0788,-4.0822,-4.0791,-4.0866,-4.1047,-4.0791,-4.0791,-4.0837,-4.1243,-4.1291,-4.1326,-4.101,-4.1015,-4.102,-4.124,0,-4.0451,-4.0627,-4.0593,-4.0763,-4.0841,-4.0764,-4.0852,-4.0881,-4.0876,-4.094,-4.0934,-4.1008,-4.0924,-4.0943,-4.1013,-4.101,-4.1128,-4.0994,-4.1085,-4.1089,-4.1079,-4.1364,-4.1416,-4.1623,-4.1267,-4.1272,-4.1276,0,-4.0734,-4.0784,-4.0963,-4.0982,-4.1013,-4.1093,-4.1148,-4.121,-4.1241,-4.1232,-4.1269,-4.1224,-4.1323,-4.1215,-4.135,-4.126,-4.1295,-4.1299,-4.1306,-4.1313,-4.1194,-4.1378,-4.1688,-4.1719,-4.132,-4.1316,-4.1313,0,-4.0943,-4.1055,-4.1176,-4.1198,-4.1223,-4.1281,-4.1294,-4.1318,-4.1358,-4.1406,-4.1431,-4.149,-4.1522,-4.1568,-4.1539,-4.1464,-4.1679,-4.1569,-4.1673,-4.1674,-4.1722,-4.1719,-4.2041,-4.1746,-4.1746,-4.1745,-4.1744,0,-4.1194,-4.1306,-4.127,-4.1345,-4.1467,-4.1426,-4.1548,-4.1552,-4.1574,-4.1647,-4.1583,-4.1653,-4.1611,-4.1677,-4.1655,-4.1769,-4.1784,-4.1779,-4.1772,-4.1784,-4.1785,-4.1806,-4.1791,-4.1753,-4.1751,-4.175,-4.1748,0,-4.1448,-4.1428,-4.1555,-4.1568,-4.1574,-4.1663,-4.1674,-4.1742,-4.1732,-4.1825,-4.1844,-4.1829,-4.1903,-4.1879,-4.1958,-4.1943,-4.2088,-4.2063,-4.2078,-4.2072,-4.2177,-4.2167,-4.2523,-4.2567,-4.2245,-4.2248,-4.225,0,-4.1609,-4.1694,-4.1715,-4.176,-4.1777,-4.185,-4.189,-4.1852,-4.1896,-4.1936,-4.2,-4.2068,-4.2121,-4.2242,-4.2237,-4.2297,-4.2272,-4.2393,-4.2281,-4.229,-4.2273,-4.2268,-4.2275,-4.2415,-4.2419,-4.2422,-4.2425,0,-4.1897,-4.1883,-4.1944,-4.2002,-4.2051,-4.2095,-4.2132,-4.2172,-4.2136,-4.2189,-4.2264,-4.2305,-4.2385,-4.2453,-4.2507,-4.2519,-4.2466,-4.246,-4.2487,-4.2501,-4.2506,-4.2503,-4.2138,-4.2452,-4.2449,-4.2447,-4.2446,-4.2445,-4.2109,-4.218,-4.2206,-4.2275,-4.2299,-4.2335,-4.24,-4.2398,-4.246,-4.2523,-4.2496,-4.2582,-4.2608,-4.2675,-4.2694,-4.276,-4.2713,-4.2752,-4.2762,-4.2772,-4.2785,-4.2496,-4.2769,-4.2769,-4.2768,-4.2767,-4.2767,0,-4.2392,-4.2405,-4.2469,-4.2524,-4.2578,-4.2523,-4.2562,-4.261,-4.2687,-4.2716,-4.2769,-4.2854,-4.2919,-4.2919,-4.2979,-4.3032,-4.3009,-4.3049,-4.3044,-4.3047,-4.2824,-4.2794,-4.3066,-4.3066,-4.3066,-4.3066,-4.3066,-4.3066,-4.2546,-4.2663,-4.2651,-4.2778,-4.2789,-4.2873,-4.29,-4.2932,-4.2955,-4.3053,-4.3107,-4.3106,-4.3123,-4.3184,-4.3241,-4.3239,-4.3263,-4.3313,-4.3302,-4.3093,-4.3063,-4.3035,-4.3007,-4.3319,-4.3319,-4.3519,-4.3521,-4.3522]},{"header":{"parameterUnit":"m.s-1","parameterCategory":1,"la1":30.2991,"la2":30.254,"lo1":-89.0895,"lo2":-89.0444,"dy":0.0017,"dx":0.0017,"nx":28,"ny":28,"refTime":"2023-10-31T09:00:00:Z","depth":0,"parameterNumber":3,"parameterNumberName":"V-component_of_WINDS"},"data":[0,0,0,0,0,0,0,0,0,0,0,0,0,0,0,0,0,0,0,0,0,0,0,0,0,0,0,0,0,0,0,0,0,0,0,0,0,0,0,0,0,0,0,0,0,0,0,0,0,0,0,0,0,0,0,0,0,0,-6.3954,-6.3955,0,-6.4034,-6.4035,-6.4036,-6.3928,-6.3925,-6.3921,-6.3917,-6.3994,-6.4,-6.4005,0,0,0,0,0,0,0,0,0,0,0,0,0,-6.3699,-6.3704,-6.3954,-6.3955,-6.3956,-6.4034,-6.4035,-6.4036,-6.3929,-6.3924,-6.392,-6.3915,-6.3992,-6.3999,-6.4006,0,0,0,0,0,0,0,0,0,0,0,0,0,-6.3798,-6.3706,-6.3954,-6.3912,-6.3909,-6.4034,-6.4035,-6.4037,-6.393,-6.3924,-6.3919,-6.3913,-6.399,-6.3998,-6.4007,-6.4175,0,0,-6.4032,-6.4036,0,0,0,0,0,0,0,0,-6.3792,-6.3807,-6.3917,-6.3915,-6.3912,-6.3966,-6.3974,-6.4083,-6.3932,-6.3922,-6.3917,-6.391,-6.3989,-6.3997,-6.4025,-6.4178,-6.4182,-6.4033,-6.4038,-6.4042,-6.4044,0,0,0,0,0,0,0,-6.3786,-6.3803,-6.3985,-6.3919,-6.3916,-6.3886,-6.3894,-6.3994,-6.3987,-6.3922,-6.3915,-6.3926,-6.3986,-6.4017,-6.4026,-6.4183,-6.4033,-6.404,-6.4046,-6.4049,-6.4474,-6.448,0,0,0,0,0,0,-6.3785,-6.3798,-6.3983,-6.3988,-6.3837,-6.3896,-6.3904,-6.3954,-6.3985,-6.3985,-6.3931,-6.3921,-6.4005,-6.4016,-6.4028,-6.4224,-6.4042,-6.405,-6.4055,-6.4468,-6.4475,-6.4482,0,0,0,0,0,0,-6.378,-6.3802,-6.398,-6.3891,-6.3911,-6.3906,-6.3963,-6.3959,-6.3989,-6.3992,-6.3989,-6.3964,-6.4001,-6.4016,-6.4139,-6.4225,-6.4054,-6.4061,-6.4461,-6.447,-6.4479,-6.462,0,0,0,0,0,0,-6.3773,-6.3801,-6.3867,-6.3893,-6.3917,-6.4092,-6.3969,-6.3965,-6.4005,-6.3992,-6.4022,-6.4022,-6.3998,-6.4127,-6.4147,-6.4234,-6.4068,-6.4453,-6.4465,-6.4476,-6.4608,-6.4633,-6.4655,0,0,0,0,0,-6.3764,-6.3903,-6.3871,-6.3894,-6.3999,-6.4097,-6.411,-6.4081,-6.4012,-6.4077,-6.4078,-6.4021,-6.4213,-6.414,-6.4162,-6.4253,-6.4447,-6.4461,-6.4475,-6.4597,-6.4628,-6.4654,0,0,0,0,0,0,-6.3885,-6.3906,-6.387,-6.4023,-6.4059,-6.4079,-6.4159,-6.4116,-6.4171,-6.4157,-6.4117,-6.4124,-6.4255,-6.4266,-6.4184,-6.4415,-6.4318,-6.4337,-6.4403,-6.4433,-6.4456,-6.445,-6.4075,0,0,0,0,0,-6.393,-6.401,-6.4023,-6.4156,-6.4176,-6.4165,-6.4206,-6.4181,-6.4216,-6.4231,-6.4241,-6.4276,-6.4343,-6.4389,-6.4452,-6.4609,-6.4612,-6.4682,-6.4706,-6.4725,-6.4742,-6.4822,-6.4853,-6.4528,-6.4528,-6.4528,0,0,-6.4023,-6.4044,-6.4097,-6.4181,-6.4206,-6.4287,-6.4179,-6.4269,-6.4328,-6.4244,-6.436,-6.4369,-6.4404,-6.4544,-6.4606,-6.4558,-6.4832,-6.4743,-6.4759,-6.4764,-6.484,-6.487,-6.4898,-6.4538,-6.4536,-6.4534,0,0,-6.4233,-6.4259,-6.437,-6.4398,-6.4438,-6.4429,-6.4456,-6.4483,-6.4485,-6.4602,-6.4539,-6.4607,-6.4726,-6.4753,-6.4783,-6.5001,-6.4949,-6.5022,-6.5145,-6.5224,-6.525,-6.5272,-6.5347,-6.5375,-6.5039,-6.5039,-6.5039,0,-6.4342,-6.4464,-6.4433,-6.4528,-6.4565,-6.4494,-6.4605,-6.4633,-6.4691,-6.4717,-6.4662,-6.4808,-6.4827,-6.4971,-6.5024,-6.5051,-6.5078,-6.5018,-6.5249,-6.5271,-6.5291,-6.5363,-6.5391,-6.5048,-6.5047,-6.5046,-6.5045,0,-6.4595,-6.4681,-6.4766,-6.4825,-6.4871,-6.4974,-6.4956,-6.5007,-6.4977,-6.4973,-6.509,-6.5111,-6.5175,-6.5208,-6.518,-6.5347,-6.5315,-6.5256,-6.5157,-6.5332,-6.5397,-6.5425,-6.506,-6.5057,-6.5054,-6.5052,0,0,-6.4884,-6.4924,-6.4955,-6.498,-6.5018,-6.5082,-6.518,-6.5244,-6.5287,-6.5329,-6.5408,-6.5509,-6.5453,-6.5487,-6.5461,-6.553,-6.5698,-6.5461,-6.5462,-6.5503,-6.588,-6.5923,-6.5956,-6.5665,-6.567,-6.5674,-6.5876,0,-6.5092,-6.5264,-6.5237,-6.5402,-6.5478,-6.5411,-6.5495,-6.5526,-6.5525,-6.5587,-6.5585,-6.5656,-6.5579,-6.5598,-6.5665,-6.5664,-6.5773,-6.5649,-6.5735,-6.5738,-6.5726,-6.5991,-6.6037,-6.6228,-6.5902,-6.5907,-6.591,0,-6.5358,-6.541,-6.5583,-6.5606,-6.5637,-6.5714,-6.5769,-6.5831,-6.5864,-6.5857,-6.5894,-6.5855,-6.5949,-6.585,-6.5978,-6.5894,-6.5927,-6.5932,-6.5939,-6.5944,-6.5833,-6.6001,-6.6288,-6.6316,-6.5951,-6.5947,-6.5944,0,-6.5548,-6.5662,-6.5779,-6.5802,-6.5833,-6.5888,-6.5904,-6.593,-6.597,-6.6018,-6.6042,-6.61,-6.6131,-6.6176,-6.6151,-6.6082,-6.6282,-6.6182,-6.6277,-6.6278,-6.6321,-6.6319,-6.6616,-6.6347,-6.6346,-6.6346,-6.6345,0,-6.5782,-6.5889,-6.5864,-6.5936,-6.6053,-6.6021,-6.6137,-6.6143,-6.6167,-6.6237,-6.6182,-6.6248,-6.6213,-6.6276,-6.6257,-6.6364,-6.6379,-6.6375,-6.6368,-6.6379,-6.6379,-6.6399,-6.6384,-6.6353,-6.6352,-6.635,-6.6349,0,-6.6013,-6.6002,-6.6124,-6.6144,-6.6151,-6.6236,-6.6251,-6.6317,-6.6311,-6.64,-6.6418,-6.6409,-6.648,-6.646,-6.6537,-6.6524,-6.6659,-6.6636,-6.6648,-6.6642,-6.6737,-6.6728,-6.7056,-6.7096,-6.6804,-6.6806,-6.6809,0,-6.6162,-6.6243,-6.6272,-6.6315,-6.6335,-6.6406,-6.6446,-6.6416,-6.6459,-6.6501,-6.6561,-6.6627,-6.6678,-6.6794,-6.6792,-6.685,-6.6827,-6.6938,-6.6835,-6.6842,-6.6825,-6.682,-6.6826,-6.6957,-6.6961,-6.6964,-6.6966,0,-6.6427,-6.6417,-6.6478,-6.6536,-6.6586,-6.663,-6.6669,-6.6707,-6.668,-6.6731,-6.6803,-6.6843,-6.6921,-6.6986,-6.7038,-6.7051,-6.7003,-6.6998,-6.7023,-6.7034,-6.7036,-6.7033,-6.6702,-6.6991,-6.6988,-6.6986,-6.6985,-6.6984,-6.662,-6.6688,-6.6718,-6.6787,-6.6813,-6.685,-6.6912,-6.6914,-6.6974,-6.7036,-6.7015,-6.7097,-6.7124,-6.7189,-6.7208,-6.727,-6.7228,-6.7264,-6.7273,-6.7282,-6.7293,-6.7028,-6.728,-6.7279,-6.7278,-6.7278,-6.7277,0,-6.6879,-6.6895,-6.6959,-6.7015,-6.7069,-6.7021,-6.7061,-6.7108,-6.7182,-6.7212,-6.7263,-6.7345,-6.7407,-6.7411,-6.7468,-6.7517,-6.7496,-6.7533,-6.7528,-6.7531,-6.7329,-6.7301,-6.7549,-6.7549,-6.7548,-6.7548,-6.7548,-6.7548,-6.7021,-6.7132,-6.7125,-6.7247,-6.7262,-6.7343,-6.7369,-6.7402,-6.7426,-6.752,-6.7572,-6.7574,-6.7593,-6.7651,-6.7705,-6.7704,-6.7727,-6.7771,-6.7762,-6.7573,-6.7546,-6.752,-6.7493,-6.7777,-6.7778,-6.7959,-6.796,-6.7962]}]]